TimeEDT,TemperatureF,Dew PointF,Humidity,Sea Level PressureIn,VisibilityMPH,Wind Direction,Wind SpeedMPH,Gust SpeedMPH,PrecipitationIn,Events,Conditions,WindDirDegrees,DateUTC
12:15 AM,41.0,24.8,53,29.87,10.0,West,12.7,23.0,N/A,,Overcast,270,2012-10-06 04:15:00
12:35 AM,41.0,26.6,57,29.87,10.0,West,15.0,20.7,N/A,,Mostly Cloudy,260,2012-10-06 04:35:00
12:55 AM,41.0,26.6,57,29.86,10.0,West,13.8,-,N/A,,Partly Cloudy,270,2012-10-06 04:55:00
1:15 AM,41.0,26.6,57,29.86,10.0,West,13.8,18.4,N/A,,Clear,270,2012-10-06 05:15:00
1:35 AM,39.2,26.6,61,29.86,10.0,West,12.7,19.6,N/A,,Partly Cloudy,270,2012-10-06 05:35:00
1:55 AM,39.2,28.4,65,29.86,10.0,West,12.7,-,N/A,,Partly Cloudy,280,2012-10-06 05:55:00
2:15 AM,39.2,28.4,65,29.86,10.0,WNW,12.7,18.4,N/A,,Mostly Cloudy,290,2012-10-06 06:15:00
2:35 AM,39.2,28.4,65,29.86,10.0,West,17.3,24.2,N/A,,Overcast,270,2012-10-06 06:35:00
2:55 AM,39.2,28.4,65,29.87,10.0,West,11.5,-,N/A,,Scattered Clouds,280,2012-10-06 06:55:00
3:15 AM,39.2,28.4,65,29.88,10.0,West,10.4,-,N/A,,Partly Cloudy,280,2012-10-06 07:15:00
3:35 AM,37.4,28.4,70,29.88,10.0,WNW,10.4,-,N/A,,Partly Cloudy,290,2012-10-06 07:35:00
3:55 AM,37.4,28.4,70,29.88,10.0,WNW,11.5,-,N/A,,Scattered Clouds,300,2012-10-06 07:55:00
4:15 AM,39.2,28.4,65,29.88,10.0,WNW,11.5,-,N/A,,Overcast,290,2012-10-06 08:15:00
4:35 AM,39.2,28.4,65,29.88,10.0,WNW,9.2,-,N/A,,Mostly Cloudy,290,2012-10-06 08:35:00
4:55 AM,37.4,28.4,70,29.89,10.0,WNW,10.4,16.1,N/A,,Scattered Clouds,290,2012-10-06 08:55:00
5:35 AM,37.4,28.4,70,29.89,10.0,West,10.4,-,N/A,,Mostly Cloudy,280,2012-10-06 09:35:00
5:55 AM,35.6,28.4,75,29.90,10.0,WNW,10.4,-,N/A,,Scattered Clouds,290,2012-10-06 09:55:00
6:15 AM,35.6,28.4,75,29.90,10.0,West,11.5,17.3,N/A,,Clear,280,2012-10-06 10:15:00
6:35 AM,35.6,28.4,75,29.91,10.0,West,10.4,-,N/A,,Clear,270,2012-10-06 10:35:00
6:55 AM,35.6,28.4,75,29.92,10.0,West,9.2,-,N/A,,Clear,280,2012-10-06 10:55:00
7:15 AM,33.8,28.4,81,29.92,10.0,West,10.4,-,N/A,,Clear,280,2012-10-06 11:15:00
7:35 AM,33.8,28.4,81,29.93,10.0,West,10.4,-,N/A,,Clear,280,2012-10-06 11:35:00
7:55 AM,33.8,28.4,81,29.93,10.0,West,9.2,-,N/A,,Clear,280,2012-10-06 11:55:00
8:15 AM,33.8,28.4,81,29.94,10.0,West,9.2,-,N/A,,Clear,280,2012-10-06 12:15:00
8:35 AM,35.6,28.4,75,29.94,10.0,West,10.4,-,N/A,,Clear,280,2012-10-06 12:35:00
8:55 AM,35.6,28.4,75,29.95,10.0,WNW,11.5,-,N/A,,Clear,290,2012-10-06 12:55:00
9:15 AM,37.4,28.4,70,29.95,10.0,WNW,13.8,19.6,N/A,,Clear,290,2012-10-06 13:15:00
9:35 AM,39.2,30.2,70,29.96,10.0,WNW,11.5,21.9,N/A,,Clear,300,2012-10-06 13:35:00
9:55 AM,39.2,30.2,70,29.97,10.0,WNW,18.4,23.0,N/A,,Scattered Clouds,300,2012-10-06 13:55:00
10:15 AM,41.0,28.4,61,29.97,10.0,NW,17.3,24.2,N/A,,Partly Cloudy,310,2012-10-06 14:15:00
10:55 AM,42.8,28.4,57,29.98,10.0,NW,18.4,25.3,N/A,,Mostly Cloudy,310,2012-10-06 14:55:00
11:15 AM,42.8,28.4,57,30.01,10.0,NNW,15.0,23.0,N/A,,Mostly Cloudy,330,2012-10-06 15:15:00
11:35 AM,44.6,28.4,53,30.00,10.0,NW,16.1,21.9,N/A,,Mostly Cloudy,310,2012-10-06 15:35:00
11:55 AM,44.6,26.6,49,30.01,10.0,NNW,15.0,23.0,N/A,,Overcast,330,2012-10-06 15:55:00
12:15 PM,44.6,28.4,53,30.02,10.0,NW,16.1,27.6,N/A,,Mostly Cloudy,320,2012-10-06 16:15:00
12:35 PM,44.6,26.6,49,30.03,10.0,NW,12.7,26.5,N/A,,Mostly Cloudy,320,2012-10-06 16:35:00
12:55 PM,44.6,28.4,53,30.03,10.0,NNW,13.8,23.0,N/A,,Mostly Cloudy,330,2012-10-06 16:55:00
1:15 PM,44.6,28.4,53,30.04,10.0,NW,15.0,21.9,N/A,,Overcast,320,2012-10-06 17:15:00
8:55 PM,33.8,28.4,81,30.13,10.0,NNW,3.5,-,N/A,,Overcast,330,2012-10-07 00:55:00
9:15 PM,35.6,26.6,70,30.12,10.0,NW,4.6,-,N/A,,Overcast,310,2012-10-07 01:15:00
9:35 PM,35.6,24.8,65,30.13,10.0,WNW,6.9,-,N/A,,Partly Cloudy,290,2012-10-07 01:35:00
9:55 PM,35.6,24.8,65,30.13,10.0,WNW,4.6,-,N/A,,Clear,290,2012-10-07 01:55:00
10:15 PM,33.8,24.8,70,30.13,10.0,WNW,4.6,-,N/A,,Clear,300,2012-10-07 02:15:00
10:35 PM,33.8,24.8,70,30.14,10.0,WNW,6.9,-,N/A,,Clear,290,2012-10-07 02:35:00
10:55 PM,32.0,24.8,75,30.14,10.0,WNW,5.8,-,N/A,,Clear,290,2012-10-07 02:55:00
11:15 PM,32.0,24.8,75,30.14,10.0,WNW,5.8,-,N/A,,Partly Cloudy,290,2012-10-07 03:15:00
11:35 PM,32.0,24.8,75,30.13,10.0,West,5.8,-,N/A,,Mostly Cloudy,280,2012-10-07 03:35:00
11:55 PM,32.0,24.8,75,30.13,10.0,West,5.8,-,N/A,,Overcast,280,2012-10-07 03:55:00